TIANLIAN-2 03

导读 | 豆包AI

TIANLIAN-2 03(天链二号03星)是中国自主研制的第二代地球同步轨道数据中继卫星,于北京时间2022年7月12日发射后顺利进入预定轨道。它与天链二号01星、02星完成三星组网,正式建成中国第二代数据中继卫星系统,可实现中低轨道航天器全球覆盖,为载人航天器、资源卫星提供数据中继和测控服务,支撑中国航天任务开展。

基本信息
目录编号:
53100
目录名称:
TIANLIAN-2 03
国际标识:
2022-078A
轨道中心:
EARTH
卫星名称:
TIANLIAN-2 03
卫星全名:
--
卫星状态:
在轨 (已飞行1362 天)
发射日期:
2022-07-12 UTC
国别 :
中国 (CN)
星等 :
--
轨道信息
数据来源 国际轨道数据 AOE轨道数据
星历时间 2026-04-04T03:43:23+0800
7小时前
查看轨道信息
2026-03-30T12:00:00+0800
4天前
查看轨道信息
半长轴 42164.588km 42163.943km
偏心率 0.0002902 0.0003208
轨道倾角 0.482° 0.470°
近地点辐角 270.305° 275.279°
升交点赤经 74.544° 74.380°
平近点角 153.712° 268.463°
近地点 35774.214km 35772.279km
远地点 35798.688km 35799.333km
周期 1436.090分钟 1436.057分钟
每日圈数 1.002723 1.002746
详细信息
使用方式:
暂无
2D轨道图
3D轨道图
轨道高度分析图
轨道倾角分析图
轨道综合分析图
查看轨道综合分析图